Probability
0 0 0 0 0 0 0 0 0 0 0 1 2 2 4 7 10 11 12 11 9 8 7 5 5 10 12 11 10 12 12 14 18 20 18 15 14 12 9 8 9 10 9 7
0 0 0 0 0 0 0 0 0 0 0 0 1 1 3 5 7 9 11 11 8 7 7 7 8 12 14 13 12 13 14 16 18 18 16 16 15 13 10 10 10 11 10 9
0 0 0 0 0 0 0 0 0 0 0 0 0 1 2 3 5 7 9 9 7 6 7 9 12 14 15 16 15 14 16 18 19 18 17 18 18 15 13 13 13 12 11 11
0 0 0 0 0 0 0 0 0 0 0 0 1 1 1 2 4 5 7 8 8 8 8 12 14 13 14 16 17 16 16 18 19 19 19 20 19 17 15 15 15 13 12 12
0 0 0 0 0 0 0 0 0 0 0 0 0 1 1 3 4 5 7 11 11 11 13 17 17 15 15 18 20 19 17 18 19 20 19 19 19 18 16 17 16 14 13 13
0 0 0 0 0 0 0 0 0 0 0 0 0 0 1 2 4 6 9 13 15 16 20 24 25 22 20 21 22 22 20 19 19 20 20 19 19 19 19 18 17 14 12 12
0 0 0 0 0 0 0 0 0 0 0 0 0 0 0 1 4 6 9 12 15 19 25 29 31 29 26 22 22 22 22 21 21 21 21 20 20 19 18 17 15 12 10 9
0 0 0 0 0 0 0 0 0 0 0 0 0 0 0 2 5 8 9 11 14 19 24 29 31 31 27 23 20 20 20 21 21 21 20 21 21 19 16 14 12 9 8 7
0 0 0 0 0 0 0 0 0 0 0 0 0 0 1 5 8 9 9 11 14 17 20 24 26 27 25 23 22 20 18 19 21 20 19 20 20 19 16 13 10 8 7 7
0 0 0 0 0 0 0 0 0 0 0 0 0 0 3 7 8 8 8 11 14 16 17 18 20 21 21 22 23 20 19 20 20 19 18 18 19 18 16 13 11 9 8 8
0 0 0 0 0 0 0 0 0 0 0 0 0 1 4 7 7 6 6 8 11 12 12 13 14 16 17 19 20 20 20 22 22 21 19 18 18 18 16 14 12 11 10 9
0 0 0 0 0 0 0 0 0 0 0 0 0 1 5 6 6 5 5 6 8 9 9 9 10 12 14 16 17 18 20 23 23 22 20 17 16 17 16 14 13 12 11 11
0 0 0 0 0 0 0 0 0 0 0 0 0 1 4 6 6 5 6 7 7 7 7 6 6 8 11 14 15 17 18 21 21 19 18 15 13 14 14 13 12 11 11 11
0 0 0 0 0 0 0 0 0 0 0 0 0 0 3 5 6 7 7 7 7 7 6 4 4 6 9 12 15 16 17 17 16 14 13 12 11 11 11 10 9 8 8 7
0 0 0 0 0 0 0 0 0 0 0 0 0 1 2 4 6 7 6 5 5 5 4 4 4 5 8 11 13 14 14 14 12 11 9 9 9 9 8 8 7 6 4 4
0 0 0 0 0 0 0 0 0 0 0 0 0 1 3 4 6 7 6 4 3 4 4 4 5 6 7 8 9 10 10 10 10 7 6 5 6 6 7 7 6 5 3 3
0 0 0 0 0 0 0 0 0 0 0 0 0 1 4 7 8 9 7 5 4 4 4 5 6 7 6 6 5 6 7 8 7 5 4 5 4 4 5 7 7 5 4 4
0 0 0 0 0 0 0 0 0 0 0 0 1 2 5 8 9 10 9 7 6 5 5 5 6 7 6 4 3 4 6 8 8 5 5 5 5 4 5 7 8 6 6 6
0 0 0 0 0 0 0 0 0 0 1 1 2 4 6 8 9 10 9 8 6 5 4 4 5 7 6 4 3 2 5 8 9 7 6 6 6 6 7 7 6 6 6 6
0 0 0 0 0 0 0 0 0 0 1 2 3 4 5 6 8 8 8 8 8 7 5 4 5 7 7 5 4 3 5 8 9 9 8 8 8 8 9 7 6 5 6 6
0 0 0 0 0 0 0 0 0 1 1 2 3 3 4 4 6 7 8 9 10 10 8 7 7 8 7 6 5 5 6 8 9 9 9 10 9 9 8 7 6 6 7 7
0 0 0 0 0 0 0 0 0 1 1 2 3 3 3 3 5 7 9 10 10 10 9 9 9 9 6 4 3 5 6 7 7 7 8 8 8 7 6 5 6 7 8 9
0 0 0 0 0 0 0 0 0 1 2 2 3 3 3 4 5 7 9 9 10 9 8 9 9 8 5 3 2 3 4 5 5 5 5 4 4 4 3 3 5 8 9 9
0 0 0 0 0 0 0 0 1 2 3 3 3 3 3 3 4 5 7 9 9 8 7 7 7 6 4 3 2 2 3 3 3 2 1 1 1 1 1 1 3 6 7 8
0 0 0 0 0 0 0 1 2 3 3 3 3 2 2 2 3 3 4 7 8 7 5 5 5 4 3 3 3 3 3 3 2 1 0 0 1 1 0 0 1 3 4 5
0 0 0 0 0 0 0 1 2 3 3 3 2 1 1 1 1 1 2 4 6 6 3 2 3 3 3 3 3 3 4 4 2 1 1 1 2 2 1 0 0 1 1 2
Wind_Speed
1 3 3 7 7 6 4 4 6 7 5 1 3 4 5 5 6 6 7 7 8 8 7 8 8 8 7 6 6 6 5 4 4 3 3 3 2 2 2 2 3 3 3 3
3 4 10 6 3 3 3 4 7 7 4 1 1 2 3 4 7 9 10 10 9 7 6 7 7 7 8 8 7 6 5 5 4 3 3 3 3 2 2 1 2 2 3 3
6 8 5 4 4 4 5 5 6 5 4 3 3 4 3 3 1 4 7 9 10 11 10 9 9 8 8 8 8 7 5 5 4 4 3 3 2 2 2 1 0 1 3 3
5 7 5 4 6 5 7 8 6 3 0 3 2 1 5 2 1 3 5 6 7 8 8 8 9 8 9 9 8 7 6 6 5 5 5 5 4 2 2 1 1 1 2 3
5 4 4 6 8 6 8 7 5 3 1 1 1 2 6 1 2 4 3 5 6 7 8 8 8 9 8 7 7 6 5 5 5 5 6 5 3 2 2 2 2 1 1 2
7 5 4 7 6 5 4 2 4 4 5 2 5 4 5 4 7 5 3 4 6 6 7 7 7 7 6 6 6 6 6 4 4 5 6 6 5 3 3 2 2 1 0 0
7 7 4 3 2 4 4 6 5 5 4 6 3 2 5 5 4 5 5 4 5 5 6 7 7 6 6 6 6 6 6 4 3 4 4 5 5 5 4 3 2 2 1 1
2 7 5 2 4 4 2 8 7 4 4 5 3 1 4 1 3 5 5 5 5 5 5 5 6 6 5 4 5 6 6 6 5 5 4 3 4 3 3 3 3 3 2 2
3 5 4 2 1 5 2 2 7 7 1 1 3 2 3 4 5 5 6 6 5 5 4 4 4 4 4 4 4 6 6 5 5 5 4 3 4 3 3 3 2 2 2 2
4 2 4 4 5 4 4 4 5 5 3 2 3 2 3 2 1 3 4 4 4 4 3 3 3 3 3 4 4 4 4 4 4 4 4 4 4 4 3 3 2 2 2 2
3 2 5 5 2 2 3 3 4 4 5 5 3 5 4 6 5 4 4 4 5 5 5 4 3 3 3 4 4 4 3 3 3 3 3 4 3 4 4 3 3 3 2 2
2 5 1 4 3 0 3 2 4 3 2 3 3 6 3 3 3 3 2 3 4 5 4 4 3 3 3 3 4 3 3 3 3 3 3 3 3 3 4 4 4 4 4 3
3 6 3 8 8 7 4 2 2 4 3 2 2 5 2 1 1 1 2 2 3 4 4 4 3 2 2 2 3 3 2 2 3 3 3 3 3 3 4 5 4 4 3 3
5 5 5 5 5 3 4 6 3 3 2 2 4 4 3 1 0 1 1 3 3 4 4 3 3 1 1 2 2 3 3 2 2 2 3 2 3 4 4 4 4 3 3 2
6 3 1 2 2 1 3 5 4 1 3 5 4 3 4 3 1 1 2 3 3 3 3 2 3 2 2 1 2 2 2 2 2 2 2 3 3 2 2 3 3 3 3 3
4 2 2 2 2 3 4 6 4 2 0 3 2 1 1 0 2 3 2 3 2 1 1 2 2 3 3 2 2 2 2 2 2 2 2 2 2 1 2 2 2 2 3 2
2 3 2 2 3 4 3 4 2 2 2 2 1 2 2 3 2 0 1 2 2 2 2 2 2 3 3 3 2 3 3 2 3 3 3 3 3 3 3 2 2 2 3 3
6 4 3 1 2 1 4 1 3 5 5 4 2 2 2 2 0 0 1 2 1 1 2 2 2 2 2 2 2 2 2 3 3 3 3 3 3 3 3 2 3 3 3 3
6 7 4 3 2 3 2 2 0 2 2 3 3 2 1 2 3 3 1 1 1 0 1 2 2 2 1 2 2 1 2 2 2 3 3 3 3 3 3 3 3 3 2 3
4 5 5 3 3 4 4 4 1 5 1 2 2 1 1 2 2 3 2 1 1 1 0 0 0 0 1 2 2 1 2 2 2 3 3 3 3 3 4 4 4 3 3 3
2 3 2 2 2 3 4 3 2 2 4 2 1 1 1 1 4 4 2 1 1 1 0 0 0 0 1 1 1 2 2 4 4 3 3 2 3 3 3 3 3 2 2 2
3 2 1 2 2 4 4 2 2 4 3 3 2 1 0 0 0 0 0 1 1 2 1 0 0 1 1 1 1 1 3 4 3 2 2 2 2 3 2 2 3 2 2 2
1 4 4 4 5 4 1 2 3 4 3 2 1 1 1 1 1 1 1 1 1 1 2 1 1 1 1 1 1 3 4 3 2 2 2 2 2 2 2 2 3 2 2 2
2 1 3 1 1 1 1 1 2 3 3 2 2 2 2 1 1 2 2 1 1 2 2 1 0 1 2 2 3 4 4 2 2 2 1 1 1 1 1 2 2 2 2 3
2 1 2 1 2 1 2 1 2 2 3 3 2 2 2 2 0 1 2 2 1 1 1 1 1 2 3 3 3 3 2 1 1 2 2 1 1 1 1 2 2 3 3 4
2 3 4 5 5 4 3 3 2 3 2 2 2 2 1 1 0 1 2 2 1 1 1 1 1 2 3 3 3 3 2 1 2 2 2 2 1 1 1 1 2 3 3 3
Wind_Direction
239 96 219 225 200 195 212 257 280 280 277 259 198 202 205 180 159 161 165 162 162 170 174 159 151 148 136 134 137 132 128 135 133 136 141 140 146 152 142 155 156 142 134 132
20 247 230 221 217 212 235 270 284 287 287 204 173 229 220 190 179 176 171 168 164 162 158 161 156 152 148 150 149 144 145 144 147 161 159 152 148 154 154 154 138 142 135 136
208 239 227 205 237 244 253 228 242 256 313 356 79 349 307 290 188 169 172 166 165 168 168 169 167 164 155 155 159 158 151 147 149 138 118 108 87 71 67 76 105 154 139 137
238 245 237 224 233 216 256 243 229 227 50 285 117 265 280 250 269 205 192 174 167 164 160 164 166 167 167 168 163 156 152 146 141 134 134 136 139 150 175 175 175 145 135 142
255 246 224 229 233 216 232 244 234 225 188 332 341 148 275 250 249 239 199 173 164 163 159 156 162 165 162 156 153 152 141 135 140 142 144 141 135 149 141 129 127 138 135 154
255 257 219 220 235 220 225 2 8 41 73 313 243 174 258 231 215 205 182 172 166 165 156 151 151 143 142 141 147 150 146 150 154 151 150 150 148 145 134 133 152 161 129 170
301 298 271 236 285 327 65 75 25 353 358 257 256 167 244 254 198 169 163 149 140 133 141 148 146 144 146 148 153 161 156 158 174 163 162 162 158 155 157 160 168 172 182 215
260 289 283 251 190 201 190 133 153 201 237 279 333 214 262 296 125 124 130 129 133 132 138 138 144 143 150 164 170 171 163 168 174 169 169 159 157 157 167 173 175 189 198 209
197 262 290 287 231 150 146 180 169 148 215 285 285 275 321 36 71 83 100 103 115 130 129 131 135 143 155 171 179 173 169 170 173 170 163 162 163 165 176 182 182 189 200 200
162 265 305 322 31 14 147 150 88 109 147 266 284 256 239 248 144 105 112 125 125 116 108 105 133 149 157 167 171 166 159 165 163 164 170 171 178 178 181 179 186 187 198 196
113 131 318 4 32 312 13 42 95 118 151 166 242 267 238 197 190 176 176 156 145 145 147 149 148 162 158 145 142 142 147 152 156 167 170 169 184 187 183 185 191 190 190 185
80 115 291 283 285 151 123 137 127 136 245 173 180 266 297 176 184 177 169 154 143 140 142 143 141 136 132 127 130 147 150 164 174 172 163 176 192 192 188 196 196 191 187 189
82 92 41 345 349 5 32 21 98 133 124 150 170 262 328 47 45 89 116 113 105 103 108 114 119 123 132 149 151 163 160 166 170 164 160 172 187 193 200 204 196 188 188 193
93 95 141 192 236 286 329 335 358 94 135 213 211 227 298 327 37 339 104 111 108 110 116 120 129 153 158 181 173 162 158 174 179 170 167 181 206 208 204 198 187 181 183 183
79 101 150 211 253 328 328 326 333 327 193 189 211 207 253 253 205 163 130 115 112 113 122 140 147 162 183 201 200 194 180 181 180 173 186 212 228 215 193 192 186 182 185 193
71 111 62 346 339 0 346 340 339 340 350 145 140 248 258 109 75 75 83 110 119 126 162 181 169 164 179 203 191 208 198 195 178 179 199 207 212 202 198 203 193 191 201 199
121 122 108 268 294 16 347 326 4 65 30 130 191 211 136 61 48 95 175 138 148 159 170 181 197 192 200 212 209 212 202 175 178 200 213 215 212 210 213 214 196 203 211 210
147 130 135 168 35 227 241 276 83 87 51 47 83 133 135 133 140 302 185 114 105 141 162 182 192 209 231 231 226 225 191 180 192 206 217 223 220 223 223 213 216 220 215 210
148 141 132 131 167 253 274 303 322 124 41 33 77 76 97 85 48 360 352 79 104 153 154 176 190 208 239 237 224 218 214 207 212 226 230 229 217 218 227 228 228 224 217 226
80 104 123 139 164 222 250 277 275 105 122 343 86 94 29 49 40 290 313 6 11 7 55 110 104 84 228 242 197 197 217 210 216 224 224 222 223 223 227 227 229 228 217 229
54 59 110 151 192 257 268 293 58 117 232 237 132 104 28 187 215 238 281 342 343 344 349 31 83 120 233 225 178 224 219 220 222 225 222 224 224 222 227 230 229 224 216 219
146 124 158 144 167 252 289 54 128 203 202 181 170 150 101 195 222 64 22 338 350 355 345 358 317 292 289 224 164 237 244 236 226 216 211 224 226 230 232 237 241 222 204 210
134 178 174 173 202 230 232 160 182 162 153 175 177 214 125 74 26 13 340 313 330 337 323 306 253 285 303 283 210 240 256 248 221 211 216 224 227 231 218 221 237 235 212 212
311 91 109 103 260 212 130 117 126 131 139 151 154 158 122 113 20 337 310 301 312 321 319 321 278 261 283 278 262 255 257 239 210 214 242 238 215 268 248 233 231 220 218 220
253 32 90 147 243 9 8 104 132 112 108 107 110 123 140 135 60 337 315 290 266 280 299 317 260 259 267 271 272 269 260 221 193 199 213 211 203 225 239 241 242 226 225 214
241 182 173 211 215 181 231 238 155 127 133 138 121 87 85 114 140 351 314 289 272 274 286 304 293 282 276 268 272 275 265 209 192 221 220 212 214 230 229 231 294 302 257 237